Terminal Aerodrome Forecast
Issued by NWS

Home | Current Version | Previous Version | Text Only | Print | Product List | Glossary On
Versions: 1 2 3 4 5 6 7 8 9 10 11 12 13 14 15 16 17 18 19
000
FTUS43 KPAH 271700
TAFCGI
TAF
KCGI 271720Z 2718/2818 36011KT P6SM SCT015 BKN025
     FM280100 VRB03KT P6SM SCT030
     FM281500 13007KT P6SM SCT250=

USA.gov is the U.S. government's official web portal to all federal, state and local government web resources and services.